Weather Roundup
Issued by NWS Springfield, MO

Home | Current Version | Previous Version | Text Only | Print | Product List | Glossary On
Versions: 1 2 3 4 5 6 7 8 9 10 11 12 13 14 15 16 17 18 19 20 21 22 23 24 25 26 27 28 29 30 31 32 33 34 35 36 37 38 39 40 41 42 43 44 45 46 47 48 49 50
000
NZUS99 KSGF 042207
HRRSGF

HOURLY WEATHER
NATIONAL WEATHER SERVICE SPRINGFIELD MO
500 PM CDT MON MAY 04 2015

......SGF CWA......

CITY           SKY/WX    TMP DP  RH WIND       PRES   REMARKS
SPRINGFIELD    CLOUDY    81  58  45 S16       30.07F
JOPLIN         MOSUNNY   81  60  48 S18       30.05F
WEST PLAINS    MOSUNNY   80  52  37 S12       30.12F
ROLLA          MOSUNNY   80  59  48 S9        30.06F
OSAGE BEACH    PTSUNNY  N/A N/A N/A S8        30.05F
BRANSON        PTSUNNY   81  54  39 S9        30.11F

......SURROUNDING SGF CWA......

CITY           SKY/WX    TMP DP  RH WIND       PRES   REMARKS
CHANUTE        MOSUNNY   81  61  50 S20       30.00F
PARSONS        MOSUNNY   83  61  47 S13G22    30.03F
COFFEYVILLE    MOSUNNY   82  60  47 S18G26    30.01F
EMPORIA        PTSUNNY   80  61  52 S21G31    29.95F
GROVE OK       MOSUNNY   82  59  44 S12       30.06F
ROGERS AR      MOSUNNY   80  60  50 S14       30.09F
SILOAM SPRINGS MOSUNNY   79  59  50 S12       30.10F
HARRISON AR    MOSUNNY   79  57  46 S10       30.11F
NEAR YELLVILLE MOSUNNY   82  55  39 SE6       30.08F

......KANSAS AND MISSOURI......

CITY           SKY/WX    TMP DP  RH WIND       PRES   REMARKS
KANSAS CTY INT PTSUNNY   79  61  53 SE12      29.96F
DOWNTOWN KC    PTSUNNY   83  60  45 S12       29.96F
COLUMBIA       PTSUNNY   80  61  52 S12       30.04F
SEDALIA        MOSUNNY   82  60  47 S14       30.04F
ST JOSEPH      PTSUNNY   78  60  53 E7        29.98F
ST LOUIS       PTSUNNY   85  57  38 SW9       30.06F
SPIRIT OF STL  PTSUNNY   83  57  41 SW7       30.04F
KIRKSVILLE     PTSUNNY   77  63  61 S8        30.04F
WICHITA        PTSUNNY   84  60  44 S22G29    29.94F
TOPEKA         PTSUNNY   85  60  42 S10G23    29.94F
OLATHE         PTSUNNY   80  62  54 S17       29.97F

......TENNESSEE......

CITY           SKY/WX    TMP DP  RH WIND       PRES   REMARKS
MEMPHIS        MOSUNNY   83  44  25 SE9       30.16S
NASHVILLE      PTSUNNY   82  51  34 SW8       30.19S

......ARKANSAS.......

CITY           SKY/WX    TMP DP  RH WIND       PRES   REMARKS
FAYETTEVILLE   MOSUNNY   75  61  61 S9        30.09F
FT SMITH       MOSUNNY   83  50  31 S10       30.06F
LITTLE ROCK    MOSUNNY   82  53  36 VRB6G20   30.12F

......OKLAHOMA.......

CITY           SKY/WX    TMP DP  RH WIND       PRES   REMARKS
TULSA          MOSUNNY   83  59  44 S13G24    30.00F
PONCA CITY     MOSUNNY   82  61  48 S12G26    29.97F
MCALESTER      MOSUNNY   81  57  43 S9        30.04F
OKLAHOMA CITY  PTSUNNY   80  59  48 SE17G26   30.00F

......IOWA............

CITY           SKY/WX    TMP DP  RH WIND       PRES   REMARKS
DES MOINES     CLOUDY    69  60  73 N6        30.09R
QUAD CITIES    PTSUNNY   75  61  61 NE14      30.06F

......ILLINOIS........

CITY           SKY/WX    TMP DP  RH WIND       PRES   REMARKS
QUINCY         CLOUDY    80  59  48 SW14      30.04F
CHICAGO        CLOUDY    67  54  63 NE12      30.13R




USA.gov is the U.S. government's official web portal to all federal, state and local government web resources and services.